EW7614 Weather Reports


Display with metric or nautical units.
time (UTC)temp
F
wind
direction
speed
MPH
gust
MPH
rain 1hr
in
rain 24hr
in
rain mn
in
humidity
%
barometer
mb
20260902003004 53 261 0.0 0.0 0.00 0.01 0.00 94 1019.4
20260902001544 53 261 0.0 0.0 0.00 0.01 0.00 92 1019.3
20260902000115 54 257 0.0 0.0 0.00 0.01 0.00 93 1019.2
20260901234535 54 257 0.0 1.0 0.00 0.01 0.00 93 1019.3
20260901233127 54 260 0.0 0.0 0.00 0.01 0.00 93 1019.2
20260901231608 54 245 0.0 2.0 0.00 0.01 0.00 93 1019.2
20260901230036 54 265 0.0 0.0 0.00 0.01 0.00 92 1019.2
20260901224616 55 265 0.0 0.0 0.00 0.01 0.00 91 1019.1
20260901223001 56 265 0.0 0.0 0.00 0.01 0.00 90 1019.0
20260901221538 56 265 0.0 0.0 0.00 0.01 0.00 91 1019.1
20260901220119 57 265 0.0 1.0 0.00 0.01 0.00 88 1019.1
20260901214536 57 270 0.0 0.0 0.00 0.01 0.01 88 1019.0
20260901213138 58 271 0.0 0.0 0.00 0.01 0.01 86 1018.9
20260901211609 58 271 0.0 0.0 0.00 0.01 0.01 88 1019.0
20260901210029 60 244 0.0 0.0 0.00 0.01 0.01 83 1019.0
20260901204620 61 244 0.0 0.0 0.00 0.02 0.01 82 1019.0
20260901203101 62 244 0.0 3.0 0.00 0.02 0.01 80 1018.9
20260901201622 62 159 0.0 0.0 0.00 0.02 0.01 79 1018.9
20260901200038 62 292 0.0 0.0 0.00 0.02 0.01 79 1018.7
20260901194626 63 292 0.0 0.0 0.00 0.04 0.01 80 1018.8
20260901193031 65 229 2.0 11.0 0.00 0.04 0.01 70 1018.7
20260901191623 65 184 0.0 8.0 0.00 0.04 0.01 69 1018.6
20260901190031 65 201 2.0 8.0 0.00 0.04 0.01 69 1018.4
20260901184621 65 156 1.0 8.0 0.00 0.06 0.01 69 1018.3
20260901183024 65 160 2.0 8.0 0.00 0.06 0.01 70 1017.9
20260901181625 65 177 0.0 3.0 0.00 0.06 0.01 71 1017.7
20260901180112 66 166 1.0 7.0 0.00 0.06 0.01 68 1017.6
20260901174554 66 184 2.0 8.0 0.00 0.09 0.01 69 1017.5
20260901173124 66 186 4.0 10.0 0.00 0.09 0.01 69 1017.4
20260901171507 67 218 5.0 10.0 0.00 0.09 0.01 68 1017.3
20260901170042 67 206 0.0 5.0 0.00 0.09 0.01 64 1017.3
20260901164620 68 192 0.0 7.0 0.00 0.14 0.01 67 1017.3
20260901163006 68 200 0.0 1.0 0.00 0.14 0.01 70 1017.1
20260901161619 68 164 0.0 1.0 0.00 0.14 0.01 65 1017.2
20260901160027 69 209 0.0 4.0 0.00 0.14 0.01 62 1017.2
20260901154613 69 199 0.0 2.0 0.00 0.14 0.01 61 1017.1
20260901153043 69 244 2.0 4.0 0.00 0.14 0.01 56 1017.1
20260901151610 69 216 0.0 2.0 0.00 0.14 0.01 63 1017.2
20260901150026 71 252 0.0 8.0 0.00 0.14 0.01 56 1017.1
20260901144621 71 294 0.0 5.0 0.00 0.14 0.01 54 1017.1
20260901143030 70 233 0.0 5.0 0.00 0.14 0.01 62 1017.1
20260901141621 71 223 1.0 4.0 0.00 0.14 0.01 59 1016.9
20260901140004 71 209 0.0 2.0 0.00 0.14 0.01 62 1017.0
20260901134541 70 267 0.0 5.0 0.00 0.14 0.01 58 1017.2
20260901133115 70 320 4.0 8.0 0.00 0.14 0.01 56 1017.3
20260901131546 72 252 0.0 3.0 0.00 0.14 0.01 56 1017.2
20260901130124 73 86 0.0 1.0 0.00 0.14 0.01 56 1017.3
20260901124525 73 219 0.0 4.0 0.00 0.14 0.01 60 1017.4
20260901123117 74 355 0.0 3.0 0.00 0.14 0.01 60 1017.4
20260901121537 73 63 1.0 5.0 0.00 0.14 0.01 53 1017.4
20260901120116 72 142 0.0 3.0 0.00 0.14 0.01 65 1017.4
20260901114532 73 94 0.0 2.0 0.00 0.14 0.01 54 1017.7
20260901113119 74 49 0.0 1.0 0.00 0.14 0.01 55 1017.7
20260901111527 74 289 0.0 4.0 0.00 0.14 0.01 57 1017.9
20260901110116 73 138 0.0 3.0 0.00 0.14 0.01 60 1018.0
20260901103048 70 137 0.0 2.0 0.00 0.14 0.01 64 1018.3
20260901101631 70 140 0.0 2.0 0.00 0.14 0.01 62 1018.4
20260901100106 69 142 0.0 3.0 0.00 0.14 0.01 61 1018.6
20260901094523 68 139 0.0 2.0 0.00 0.14 0.01 65 1018.7
20260901093121 67 128 0.0 4.0 0.00 0.14 0.01 67 1018.9
20260901091535 66 187 0.0 4.0 0.00 0.14 0.01 73 1019.1
20260901090123 65 148 0.0 3.0 0.00 0.14 0.01 73 1019.2
20260901084531 65 186 0.0 3.0 0.00 0.14 0.01 76 1019.3
20260901083119 64 159 0.0 1.0 0.00 0.14 0.01 79 1019.3
20260901081508 63 155 0.0 1.0 0.00 0.14 0.01 79 1019.5
20260901080108 62 161 0.0 0.0 0.00 0.14 0.01 84 1019.6
20260901074542 60 186 0.0 1.0 0.00 0.14 0.01 85 1019.6
20260901073115 59 187 0.0 0.0 0.00 0.14 0.01 86 1019.8
20260901071502 57 186 0.0 0.0 0.01 0.14 0.01 92 1019.8
20260901070035 55 184 0.0 0.0 0.01 0.14 0.01 93 1019.9
20260901064621 54 185 0.0 0.0 0.01 0.14 0.01 94 1020.0
20260901061531 53 185 0.0 0.0 0.00 0.13 0.00 97 1020.1
20260901060119 53 177 0.0 0.0 0.00 0.13 0.00 97 1020.0
20260901054550 52 177 0.0 0.0 0.00 0.13 0.00 97 1020.0
20260901053135 52 177 0.0 0.0 0.00 0.13 0.00 96 1019.8
20260901051544 52 167 0.0 0.0 0.00 0.13 0.00 96 1019.8
20260901050120 52 167 0.0 0.0 0.00 0.13 0.00 96 1019.8
20260901044534 52 167 0.0 0.0 0.00 0.19 0.00 96 1019.5
20260901043121 52 159 0.0 0.0 0.00 0.19 0.00 96 1019.6
20260901041552 52 180 0.0 0.0 0.00 0.19 0.00 96 1019.6
20260901040121 53 180 0.0 0.0 0.00 0.19 0.00 95 1019.5
20260901034529 53 184 0.0 0.0 0.00 0.25 0.00 95 1019.3
20260901033112 53 184 0.0 0.0 0.00 0.25 0.00 95 1019.4
20260901031555 53 184 0.0 0.0 0.00 0.25 0.00 95 1019.4
20260901030134 54 184 0.0 0.0 0.00 0.25 0.00 95 1019.4
20260901024557 54 184 0.0 0.0 0.00 0.25 0.00 95 1019.4
20260901023124 54 180 0.0 0.0 0.00 0.25 0.00 96 1019.4
20260901021524 55 167 0.0 0.0 0.00 0.25 0.00 96 1019.4
20260901020117 55 167 0.0 0.0 0.00 0.25 0.00 96 1019.4
20260901014558 55 167 0.0 0.0 0.00 0.25 0.00 95 1019.5
20260901013131 55 167 0.0 0.0 0.00 0.25 0.00 95 1019.3
20260901011608 56 167 0.0 0.0 0.00 0.25 0.00 95 1019.4
20260901010036 56 193 0.0 3.0 0.00 0.25 0.00 95 1019.2
20260901004616 56 155 0.0 1.0 0.00 0.25 0.00 96 1019.0